Location: ??
(34.9170°N, 135.5016°E)
Time: 13:30:57
(UTC+00:00)

S-56A Canister/Altair - Pass Details

Date: 08 March 2021
Orbit: 632 x 2500 km, 38.9° (Epoch: 16 April)

Event Time Altitude Azimuth Distance (km) Brightness Sun altitude
Rises 09:30:15 0° 292° (WNW) 6,161 13.6 -7.1°
Reaches altitude 10° 09:34:24 10° 289° (WNW) 5,167 13.1 -8.0°
Maximum altitude 09:48:48 55° 218° (SW) 2,608 10.4 -10.9°
Drops below altitude 10° 10:00:13 10° 144° (SE) 4,158 10.9 -13.2°
Sets 10:03:12 0° 140° (SE) 4,922 11.2 -13.9°
